Content
SEND FEEDBACK

Daily
Averages
Monthly
Summary
United States of America

WICHITA, KANSAS


Home > North America > United States > Kansas
Elevation: 1321 feet     Latitude: 37 39N     Longitude: 097 26W

WEATHER
 
SELECT A DAY
Number of Records: 192,005;   Date Range: 1/1/95 - 8/12/14
 
SHARE

PRINT THIS DATA

[ ← Previous Day ]
WEATHER ALMANAC - FEBRUARY 10, 2013
[ Next Day → ]
[ °C ]   °F
Weather ElementAverageHighLow
Temperature43.5 °F51.1 °F (1:53 pm)34 °F (11:53 pm)
Dewpoint31 °F45 °F (1:53 am)23 °F (11:53 pm)
Humidity64.1 %100 % (1:53 am)39 % (1:53 pm)
Barometer29.72 in30.08 in (11:53 pm)29.50 in (5:21 am)
Wind Speed20 mph34.5 mph (2:53 pm)
Wind Gust44.9 mph (2:53 pm)
Weather ElementAverage
Visibility9.3 mi
Wind DirectionWSW (249.2 °)

Weather ElementTotal
Precipitation0.03 in
Heating Degree Days22.5 (Base 65)
Averaged from 25 records on February 10, 2013
WEATHER CONDITIONS BREAKOUT
WIND DIRECTION BREAKOUT
WEATHER BY HOUR - FEBRUARY 10, 2013
[ °C ]   °F
Local TimeTemperatureDewpointHumidityBarometerVisibilityWind DirectionWind SpeedGust SpeedPrecipitationEventsConditions
1:17 AM46.4 °F44.6 °F93 %29.62 in8.0 miSouth (190°)23.0 mph28.8 mph0.00 inLight Drizzle
1:53 AM45.0 °F45.0 °F100 %29.59 in4.0 miSouth (170°)20.7 mph28.8 mph0.03 inRainLight Rain
2:53 AM45.0 °F45.0 °F100 %29.57 in8.0 miSouth (180°)19.6 mph0.00 inOvercast
3:53 AM46.0 °F44.1 °F93 %29.53 in8.0 miSouth (180°)17.3 mph24.2 mphOvercast
4:53 AM46.9 °F42.1 °F83 %29.52 in7.0 miSouth (190°)18.4 mphOvercast
5:21 AM44.6 °F42.8 °F93 %29.50 in8.0 miSouth (190°)15.0 mphScattered Clouds
5:53 AM45.0 °F39.9 °F82 %29.53 in10.0 miSSW (210°)19.6 mph27.6 mphClear
6:53 AM39.9 °F30.9 °F70 %29.57 in10.0 miSW (230°)15.0 mphPartly Cloudy
7:53 AM37.0 °F30.0 °F76 %29.59 in10.0 miSW (230°)15.0 mphPartly Cloudy
8:53 AM41.0 °F30.0 °F65 %29.61 in10.0 miWest (260°)20.7 mph27.6 mphPartly Cloudy
9:53 AM43.0 °F28.0 °F56 %29.63 in10.0 miWest (260°)26.5 mph33.4 mphPartly Cloudy
10:53 AM46.0 °F28.0 °F50 %29.66 in10.0 miWest (270°)21.9 mph33.4 mphPartly Cloudy
11:53 AM48.0 °F27.0 °F44 %29.66 in10.0 miWest (270°)29.9 mph35.7 mphPartly Cloudy
12:53 PM50.0 °F27.0 °F41 %29.66 in10.0 miWest (260°)27.6 mph36.8 mphPartly Cloudy
1:53 PM51.1 °F27.0 °F39 %29.68 in10.0 miWSW (250°)29.9 mph40.3 mphScattered Clouds
2:53 PM50.0 °F26.1 °F39 %29.71 in10.0 miWest (280°)34.5 mph44.9 mphScattered Clouds
3:53 PM48.0 °F25.0 °F41 %29.76 in10.0 miWest (280°)29.9 mph40.3 mphScattered Clouds
4:53 PM46.0 °F24.1 °F42 %29.81 in10.0 miWNW (300°)31.1 mph40.3 mphScattered Clouds
5:53 PM44.1 °F24.1 °F45 %29.86 in10.0 miWNW (300°)23.0 mph28.8 mphPartly Cloudy
6:53 PM43.0 °F24.1 °F47 %29.92 in10.0 miNW (310°)17.3 mph25.3 mphScattered Clouds
7:53 PM37.0 °F24.1 °F59 %29.97 in10.0 miWest (270°)4.6 mphPartly Cloudy
8:53 PM37.9 °F25.0 °F60 %29.99 in10.0 miWest (280°)9.2 mphClear
9:53 PM37.9 °F24.1 °F57 %30.03 in10.0 miWNW (300°)12.7 mphClear
10:53 PM35.1 °F24.1 °F64 %30.06 in10.0 miWNW (290°)9.2 mphClear
11:53 PM34.0 °F23.0 °F64 %30.08 in10.0 miWest (280°)8.1 mphClear
Hourly data recorded from KICT, located miles away from Wichita, Kansas







STORIES FROM OUR PARTNERS